Tuttle Creek Lake Weather Center

Moon Phase Calendar



Tuttle Creek Lake Water Level
Online Cameras

 


      

Current Conditions in Riley
12/4/2021 11:05:34 AM

44°F
Feels Like 38
Clouds
Humidity
76%
Pressure
30.33"
Wind
12.3 mph (E)
Dew Point
37°F
UV Index
2/10 (Low)
Visibility
6 mi

Hourly Forecast

Date & Time Sat, Dec 4
11:00 AM
Sat, Dec 4
12:00 PM
Sat, Dec 4
1:00 PM
Sat, Dec 4
2:00 PM
Sat, Dec 4
3:00 PM
Sat, Dec 4
4:00 PM
Sat, Dec 4
5:00 PM
Sat, Dec 4
6:00 PM
Sat, Dec 4
7:00 PM
Sat, Dec 4
8:00 PM
Sat, Dec 4
9:00 PM
Sat, Dec 4
10:00 PM
Sat, Dec 4
11:00 PM
Sun, Dec 5
12:00 AM
Sun, Dec 5
1:00 AM
Sun, Dec 5
2:00 AM
Sun, Dec 5
3:00 AM
Sun, Dec 5
4:00 AM
Sun, Dec 5
5:00 AM
Sun, Dec 5
6:00 AM
Sun, Dec 5
7:00 AM
Sun, Dec 5
8:00 AM
Sun, Dec 5
9:00 AM
Sun, Dec 5
10:00 AM
Sun, Dec 5
11:00 AM
Sun, Dec 5
12:00 PM
Sun, Dec 5
1:00 PM
Sun, Dec 5
2:00 PM
Sun, Dec 5
3:00 PM
Sun, Dec 5
4:00 PM
Sun, Dec 5
5:00 PM
Sun, Dec 5
6:00 PM
Sun, Dec 5
7:00 PM
Sun, Dec 5
8:00 PM
Sun, Dec 5
9:00 PM
Sun, Dec 5
10:00 PM
Sun, Dec 5
11:00 PM
Mon, Dec 6
12:00 AM
Mon, Dec 6
1:00 AM
Mon, Dec 6
2:00 AM
Mon, Dec 6
3:00 AM
Mon, Dec 6
4:00 AM
Mon, Dec 6
5:00 AM
Mon, Dec 6
6:00 AM
Mon, Dec 6
7:00 AM
Mon, Dec 6
8:00 AM
Mon, Dec 6
9:00 AM
Mon, Dec 6
10:00 AM
Condition
Clouds

Clouds

Clouds

Clouds

Clouds

Clouds

Clouds

Clouds

Clear

Clear

Clear

Clear

Clear

Clear

Clouds

Clouds

Clouds

Clouds

Clouds

Clouds

Clouds

Clouds

Clouds

Clouds

Clouds

Clouds

Clouds

Clouds

Clouds

Clouds

Clouds

Clouds

Clouds

Clouds

Clouds

Clouds

Clouds

Clouds

Clouds

Clouds

Clouds

Clouds

Clouds

Clouds

Clear

Clear

Clouds

Clouds
Temperature 44°F45°F47°F49°F50°F50°F46°F43°F42°F41°F40°F39°F39°F39°F38°F38°F38°F39°F39°F40°F41°F42°F46°F51°F56°F60°F63°F64°F63°F57°F53°F51°F49°F45°F41°F39°F37°F36°F35°F33°F32°F30°F29°F28°F27°F26°F29°F33°F
Feels Like 38°F39°F42°F44°F46°F47°F41°F38°F36°F35°F34°F33°F32°F32°F32°F32°F33°F32°F32°F33°F34°F35°F39°F49°F54°F58°F61°F62°F60°F54°F50°F48°F42°F37°F31°F29°F26°F25°F24°F22°F21°F19°F18°F18°F17°F17°F20°F24°F
Cloudiness 48%48%47%38%26%16%13%14%3%1%1%1%2%2%16%41%48%60%57%64%92%95%97%95%79%81%93%87%91%93%94%95%100%100%100%100%100%100%100%89%83%63%50%42%0%1%13%11%
Visibility 6 mi6 mi6 mi6 mi6 mi6 mi6 mi6 mi6 mi6 mi6 mi6 mi6 mi6 mi6 mi6 mi6 mi6 mi6 mi6 mi6 mi6 mi6 mi6 mi6 mi6 mi6 mi6 mi6 mi6 mi6 mi6 mi6 mi6 mi6 mi6 mi6 mi6 mi6 mi6 mi6 mi6 mi6 mi6 mi6 mi6 mi6 mi6 mi
Precipitation 0%0%0%0%0%0%0%0%0%0%0%0%0%0%0%0%0%0%0%0%0%0%0%0%0%0%0%0%0%0%0%0%0%0%0%0%0%0%9%7%0%0%0%0%0%0%0%0%
Humidity 76%69%60%51%43%38%45%51%55%57%61%62%64%65%67%69%72%75%79%82%84%84%73%62%51%44%37%32%31%38%39%36%37%40%38%39%38%40%43%46%48%52%54%56%58%60%51%44%
Dew Point 37°F35°F34°F31°F29°F26°F26°F26°F27°F27°F28°F28°F28°F28°F29°F29°F30°F31°F33°F35°F37°F37°F38°F39°F39°F38°F37°F34°F32°F32°F29°F25°F24°F22°F17°F16°F14°F14°F14°F15°F15°F14°F14°F14°F14°F14°F14°F13°F
Pressure 30.33"30.33"30.3"30.27"30.21"30.15"30.15"30.15"30.15"30.15"30.12"30.09"30.06"30.03"29.97"29.94"29.91"29.88"29.83"29.8"29.8"29.77"29.74"29.71"29.68"29.62"29.59"29.59"29.65"29.71"29.8"29.85"29.91"30"30.06"30.12"30.15"30.21"30.21"30.27"30.3"30.3"30.33"30.36"30.39"30.42"30.42"30.42"
Wind Speed 12.3 mph11.5 mph10.9 mph11 mph11.4 mph10.7 mph9 mph8.4 mph9.2 mph9 mph9.1 mph9.5 mph11 mph10.6 mph8.5 mph8 mph7.3 mph9.2 mph10.3 mph11.2 mph11.1 mph12.2 mph16.2 mph18.8 mph19.8 mph18.8 mph15.9 mph14.4 mph14.1 mph18.1 mph19 mph20 mph20.9 mph22.1 mph22.7 mph22.8 mph22.1 mph19.9 mph18.3 mph16.4 mph15.6 mph14.1 mph13.3 mph11.5 mph10.2 mph8.5 mph11.1 mph11.2 mph
Wind
Direction
88°
E
101°
E
102°
ESE
101°
E
103°
ESE
103°
ESE
110°
ESE
110°
ESE
119°
ESE
112°
ESE
122°
ESE
131°
SE
147°
SSE
161°
SSE
164°
SSE
171°
S
178°
S
185°
S
191°
S
201°
SSW
208°
SSW
209°
SSW
213°
SSW
219°
SW
227°
SW
232°
SW
254°
WSW
287°
WNW
326°
NW
349°
N
357°
N
350°
N
349°
N
350°
N
340°
NNW
340°
NNW
341°
NNW
340°
NNW
344°
NNW
336°
NNW
338°
NNW
339°
NNW
341°
NNW
341°
NNW
343°
NNW
340°
NNW
347°
NNW
355°
N

Daily Forecast

Date High Low Precip. Humidity
Today
Dec 4

Clouds
50 °F
37 °F
0%
69%
Sunday
Dec 5

Clouds
64 °F
37 °F
0%
44%
Monday
Dec 6

Clouds
39 °F
28 °F
0%
33%
Tuesday
Dec 7

Clouds
43 °F
34 °F
0%
38%
Wednesday
Dec 8

Clouds
39 °F
25 °F
0%
39%
Thursday
Dec 9

Clouds
46 °F
29 °F
2%
70%
Friday
Dec 10

Rain
59 °F
37 °F
23%
59%
Saturday
Dec 11

Snow
32 °F
23 °F
71%
40%
Sunday
Dec 12

Clear
40 °F
19 °F
0%
33%
Monday
Dec 13

Clear
54 °F
33 °F
0%
21%
Tuesday
Dec 14

Clear
62 °F
39 °F
0%
50%
Wednesday
Dec 15

Rain
59 °F
39 °F
85%
76%
Thursday
Dec 16

Clear
52 °F
31 °F
43%
45%
Friday
Dec 17

Clouds
55 °F
39 °F
0%
39%
Saturday
Dec 18

Clouds
59 °F
45 °F
0%
60%
Sunday
Dec 19

Clouds
70 °F
51 °F
5%
66%

Temperature 8-14 Day Outlook



Precipitation 8-14 Day Outlook




Quick Links
Tuttle Creek Lake News
Tuttle Creek Lake Photos
Tuttle Creek Lake Videos




About Us
Contact Us
Site Map
Search Site
Advertise With Us
   
TuttleCreek.LakesOnline.com
THE TUTTLE CREEK LAKE WEBSITE

Copyright 2021, Lakes Online
Privacy    |    Legal